Home   Weather   Eidsvoll   Past weeks

Flag for Norway Past Weather in Eidsvoll, Norway — Yesterday and Last 2 Weeks

Now
37 °F

Light rain. Partly sunny.


Feels Like: 30 °F
Forecast: 34 / 41 °F
Wind: 10 mph from Southwest

Location: Oslo Gardermoen Airport

Current Time: Dec 7, 2016 at 1:35:28 pm

Latest Report: Dec 7, 2016 at 12:50 pm


Visibility: N/A

Pressure: 29.92 "Hg

Humidity: 93%

Dew Point: 36 °F

Location of EidsvollLocation

Past Weather in Eidsvoll — Graph

°F

Eidsvoll Temperature Yesterday

Maximum temperature yesterday: 28 °F (at 12:50 am)
Minimum temperature yesterday: 19 °F (at 4:20 am)
Average temperature yesterday: 24 °F

High & Low Weather Summary for the Past Weeks

 TemperatureHumidityPressure
High48 °F (Nov 25, 5:50 pm)100% (Nov 22, 7:50 pm)30.39 "Hg (Nov 22, 7:50 pm)
Low18 °F (Dec 4, 12:50 am)36% (Nov 26, 2:20 pm)29.50 "Hg (Nov 26, 2:50 pm)
Average32 °F71%29.98 "Hg
* Reported Nov 22 12:20 pm — Dec 7 12:20 pm, Eidsvoll, Weather by CustomWeather, © 2016

Note: Actual official high and low records may vary slightly from our data, if they occured in-between our weather recording intervals... More about our weather records

Advertising

Eidsvoll Weather History for the Previous 24 Hours

Scroll right to see more
 ConditionsComfort  
Time TempWeatherWind HumidityBarometerVisibility
12:20 pm
Wed, Dec 7
36 °FLight rain. Partly sunny.10 mph100%29.92 "Hg6 mi
11:50 am36 °FLight rain. Partly sunny.9 mph93%29.95 "HgN/A
11:20 am36 °FLight rain. Partly sunny.10 mph93%29.98 "HgN/A
10:50 am34 °FLight rain. Partly sunny.5 mph100%29.98 "Hg5 mi
10:20 am34 °FDrizzle. Broken clouds.No wind93%30.01 "Hg6 mi
9:50 am34 °FMixture of precip. Partly sunny.8 mph93%30.01 "HgN/A
9:20 am34 °FSnow. Partly sunny.8 mph93%30.04 "HgN/A
8:50 am34 °FPassing clouds.6 mph93%30.04 "Hg6 mi
8:20 am34 °FPassing clouds.3 mph93%30.04 "HgN/A
7:50 am32 °FPassing clouds.1 mph100%30.07 "HgN/A
7:20 am32 °FPartly cloudy.No wind100%30.07 "HgN/A
6:50 am32 °FPassing clouds.5 mph100%30.09 "Hg5 mi
6:20 am32 °FPassing clouds.2 mph93%30.09 "Hg5 mi
5:50 am30 °FPassing clouds.1 mph93%30.12 "HgN/A
5:20 am28 °FPassing clouds.5 mph93%30.12 "HgN/A
4:50 am27 °FPassing clouds.3 mph93%30.15 "HgN/A
4:20 am30 °FPassing clouds.3 mph93%30.15 "HgN/A
3:50 am27 °FLow clouds.2 mph100%30.18 "Hg5 mi
3:20 am25 °FLow clouds.No wind93%30.18 "Hg5 mi
2:50 am23 °FSleet. Passing clouds.3 mph100%30.21 "HgN/A
2:20 am23 °FSleet. Passing clouds.No wind93%30.21 "HgN/A
1:50 am21 °FSleet. Passing clouds.1 mph86%30.24 "HgN/A
1:20 am21 °FPassing clouds.No wind86%30.24 "HgN/A
12:50 am23 °FPassing clouds.1 mph93%30.24 "HgN/A
12:20 am25 °FPassing clouds.1 mph93%30.27 "HgN/A
11:50 pm
Tue, Dec 6
25 °FPassing clouds.2 mph100%30.27 "Hg6 mi
11:20 pm25 °FPassing clouds.No wind93%30.27 "HgN/A
10:50 pm25 °FPassing clouds.No wind93%30.27 "HgN/A
10:20 pm25 °FPassing clouds.No wind93%30.30 "HgN/A
9:50 pm23 °FPassing clouds.No wind93%30.30 "HgN/A
9:20 pm23 °FPassing clouds.No wind100%30.30 "HgN/A
8:50 pm23 °FPassing clouds.No wind93%30.33 "HgN/A
8:20 pm21 °FPartly cloudy.No wind93%30.33 "HgN/A
7:50 pm19 °FPartly cloudy.No wind93%30.33 "HgN/A
6:50 pm21 °FClear.2 mph93%30.36 "Hg10 mi
6:20 pm21 °FClear.1 mph93%30.36 "Hg10 mi
5:50 pm23 °FClear.No wind86%30.36 "Hg10 mi
5:20 pm23 °FClear.1 mph86%30.36 "Hg10 mi
4:50 pm23 °FClear.1 mph86%30.36 "Hg10 mi
4:20 pm23 °FClear.1 mph86%30.36 "Hg10 mi
3:50 pm25 °FClear.2 mph80%30.36 "Hg10 mi
3:20 pm25 °FClear.No wind86%30.36 "Hg10 mi
2:50 pm27 °FScattered clouds.No wind80%30.36 "HgN/A
2:20 pm27 °FPartly sunny.2 mph86%30.36 "HgN/A
1:50 pm27 °FPartly sunny.1 mph80%30.36 "HgN/A
1:20 pm27 °FSunny.No wind80%30.36 "Hg10 mi
Weather by CustomWeather, © 2016

See weather overviewHow to use our weather pages